User: anonymous   Login
Location: Unspecified
(0.0000°N, 0.0000°E)
Time: 23:01:25
(UTC+00:00)
Language:

STARLINK-31101 - Orbit

View from above orbital plane
View from above orbital plane
View from above satellite
View from above satellite

Ground track
Ground track

The orbit is defined by the following mean orbital elements,

1 58737U          26145.38303350 +.00000000 +00000-0 +44869-4 0 00001
2 58737  43.0033 146.5660 0001814 295.5062  64.5602 15.27578019    04
Epoch (UTC): 25 May 2026 09:11:34
Eccentricity: 0.0001814
inclination: 43.0033°
perigee height: 482 km
apogee height: 484 km
right ascension of ascending node: 146.5660°
argument of perigee: 295.5062°
revolutions per day: 15.27578019
mean anomaly at epoch: 64.5602°

The dashed part of the orbit path shows where the satellite is in the earth's shadow,  

DLR